Regional Weather Roundup
Issued by NWS

Home | Current Version | Previous Version | Text Only | Print | Product List | Glossary On
Versions: 1 2 3 4 5 6 7 8 9 10 11 12 13 14 15 16 17 18 19 20 21 22 23 24 25 26 27 28 29 30 31 32 33 34 35 36 37 38 39 40 41 42 43 44 45 46 47 48 49 50
000
ASUS43 KIND 031509
RWRIN

WEATHER ROUNDUP FOR INDIANA
NATIONAL WEATHER SERVICE INDIANAPOLIS IN
1100 AM EDT TUE MAY 03 2016

NOTE: "FAIR" INDICATES FEW OR NO CLOUDS BELOW 12,000 FEET WITH NO
SIGNIFICANT WEATHER AND/OR OBSTRUCTIONS TO VISIBILITY.

* - STATION DOES NOT REPORT WEATHER SUCH AS PRECIPITATION OR FOG.

+ - STATION NOT QUALITY CONTROLLED BY THE NATIONAL WEATHER SERVICE.
    USE DATA WITH CAUTION...ESPECIALLY DEWPOINT AND RELATIVE
    HUMIDITY OBSERVATIONS.

INZ001>003-010>013-019-020-031600-
NORTHWEST INDIANA

CITY           SKY/WX    TMP DP  RH WIND       PRES   REMARKS
GARY /AIRPORT/ MOSUNNY   59  43  55 NW7       29.97F
KNOX *+        SUNNY     55  32  41 CALM      29.96F
LA PORTE +     SUNNY     58  41  54 NW5       29.96F
MICHIGAN CITY+ SUNNY     55  37  50 NW3       29.97F
MONTICELLO +   SUNNY     56  41  57 N7        29.96F
RENSSELAER +   SUNNY     55  36  47 W3        29.97F
VALPARAISO     SUNNY     58  38  47 VRB5      29.97F

$$

LMZ046-743>745-031600-
SOUTHERN LAKE MICHIGAN

STATION/POSITION TIME  TEMP    WIND        PRES    WAVE
                       AIR SEA DIR/SP/G            HT
                 (UTC) (F)     (DEG/KT/KT) (MB)    (FT)
BURNS HARBOR     1400   49     280/  2/  4 1015.6F
MICHIGAN CITY    1400   46     200/  3/  4   N/A

$$

INZ004-005-014>016-021>024-031600-
NORTH CENTRAL INDIANA

CITY           SKY/WX    TMP DP  RH WIND       PRES   REMARKS
GOSHEN         SUNNY     56  46  69 VRB5      29.95S
LOGANSPORT +   CLOUDY    54  48  82 N7        29.96F
PERU/GRISSOM   MOSUNNY   52  52 100 N6        29.94F
ROCHESTER +    PTSUNNY   55  48  76 NW3       29.96F
SOUTH BEND     SUNNY     57  43  59 N5        29.96F
WARSAW +       PTSUNNY   55  46  71 CALM      29.95F

$$

INZ006>009-017-018-025>027-031600-
NORTHEAST INDIANA

CITY           SKY/WX    TMP DP  RH WIND       PRES   REMARKS
AUBURN +       CLOUDY    54  45  71 CALM      29.95S
FORT WAYNE     CLOUDY    55  45  68 N5        29.95F
HUNTINGTON +   CLOUDY    53  46  79 N3        29.95S

$$

INZ028-029-035-036-043>045-051>053-031600-
WEST CENTRAL INDIANA

CITY           SKY/WX    TMP DP  RH WIND       PRES   REMARKS
CRAWFORDSVL +  CLOUDY    51  48  92 NW8       29.97S
GREENCASTLE +  CLOUDY    52  50  93 N9        29.98R
LAFAYETTE      PTSUNNY   55  42  61 N8        29.97F
TERRE HAUTE    CLOUDY    55  47  74 NW10      29.98S

$$

INZ030>032-037>040-046>048-054>057-064-065-031600-
CENTRAL INDIANA

CITY           SKY/WX    TMP DP  RH WIND       PRES   REMARKS
ANDERSON       CLOUDY    50  46  87 N7        29.96
CP ATTERBURY + LGT RAIN  52  50  93 NW8       29.95R
FISHERS *+     CLOUDY    50  50 100 N5        29.95S
FRANKFORT +      N/A     52  51  99 CALM      29.98S
GREENWOOD *+   CLOUDY    50  50 100 NW5       29.95S
INDIANAPOLIS   CLOUDY    51  47  86 N8        29.95S
-EAGLE CREEK   CLOUDY    53  48  83 N8        29.95S
KOKOMO *+      CLOUDY    54  46  76 N7        29.95F
MARION +       CLOUDY    49  47  93 N5        29.96S FOG
SHELBYVILLE    CLOUDY    56  47  71 N7        29.93S
ZIONSVILLE +   CLOUDY    51  48  92 NE8       29.96S

$$

INZ033-034-041-042-049-050-058-059-031600-
EAST CENTRAL INDIANA

CITY           SKY/WX    TMP DP  RH WIND       PRES   REMARKS
MUNCIE         CLOUDY    54  46  74 NE8       29.94S

$$

INZ060-061-067>069-081>083-085>088-031600-
SOUTHWEST INDIANA

CITY           SKY/WX    TMP DP  RH WIND       PRES   REMARKS
EVANSVILLE     MOSUNNY   59  45  59 N9        30.00R
HUNTINGBURG *+ PTSUNNY   55  45  67 W8        29.98S
WASHINGTON +   PTSUNNY   56  52  85 NW10      29.98R

$$

INZ062-063-066-070>080-084-089>092-031600-
SOUTH CENTRAL AND SOUTHEAST INDIANA

CITY           SKY/WX    TMP DP  RH WIND       PRES   REMARKS
BEDFORD +      CLOUDY    55  54  94 W5        29.95S
BLOOMINGTON    CLOUDY    54  47  77 VRB6      29.96R
MADISON *+     CLOUDY    55  46  71 W6        29.95R
NORTH VERNON + CLOUDY   N/A N/A N/A CALM      29.94R
SEYMOUR +      CLOUDY    55  50  82 CALM      29.94R HAZE

$$




USA.gov is the U.S. government's official web portal to all federal, state and local government web resources and services.